{"data":{"norad_id":69774,"epoch":"2026-09-19T16:12:44.186688Z","epoch_age_seconds":96660,"freshness":"FRESH","line1":"1 69774U 26151M   26262.67551142  .00002418  00000+0  34596-3 0  9991","line2":"2 69774  51.8997 237.7761 0001114 131.5094 228.5964 14.79941745 11983","mean_motion":14.79941745,"eccentricity":0.0001114,"inclination_deg":51.8997,"raan_deg":237.7761,"arg_perigee_deg":131.5094,"mean_anomaly_deg":228.5964,"bstar":0.00034596,"rev_number":1198,"period_min":97.301127214301,"perigee_km":628.72737185733,"apogee_km":630.28867516857,"semimajor_km":7007.6450235129,"source":"CELESTRAK","updated_at":"2026-09-20T09:00:25.090894Z"}}